Location: Newark
(43.4100°N, 74.9600°W)
Time: 06:13:35
(UTC+00:00)

ISS - Pass Details

Date: 24 September 2019
Orbit: 411 x 421 km, 51.6° (Epoch: 17 October)

Event Time Altitude Azimuth Distance (km) Brightness Sun altitude
Rises 00:46:38 0° 270° (W) 2,339 1.3 -20.6°
Reaches altitude 10° 00:48:56 10° 283° (WNW) 1,479 0.2 -21.0°
Maximum altitude 00:51:49 27° 343° (NNW) 834 -1.9 -21.5°
Enters shadow 00:52:35 24° 8° (N) 897 -2.0 -21.6°
